• In Hungary
  • List of Countries
  • For 7 days
  • Water Temperature
  • Satellite Maps
  • Weather Map
  • News
  • Weather Widgets
  • user-avatar
    Login

    Hourly Weather Kashmar

    Today, 19 January, Friday

    Time Temperature Precipitation Wind Pressure Humidity
    00:00 +4°C° 0 mm 2 mps 651 mmHg 36%
    01:00 +4°C° 0 mm 2 mps 651 mmHg 36%
    02:00 +3°C° 0 mm 2 mps 651 mmHg 36%
    03:00 +3°C° 0 mm 2 mps 651 mmHg 37%
    04:00 +3°C° 0 mm 2 mps 650 mmHg 36%
    05:00 +3°C° 0 mm 2 mps 650 mmHg 36%
    06:00 +3°C° 0 mm 2 mps 651 mmHg 36%
    07:00 +3°C° 0 mm 2 mps 651 mmHg 36%
    08:00 +4°C° 0 mm 2 mps 651 mmHg 32%
    09:00 +5°C° 0 mm 3 mps 652 mmHg 29%
    10:00 +8°C° 0 mm 3 mps 653 mmHg 25%
    11:00 +9°C° 0 mm 3 mps 653 mmHg 24%
    12:00 +10°C° 0 mm 3 mps 653 mmHg 22%
    13:00 +11°C° 0 mm 4 mps 653 mmHg 21%
    14:00 +11°C° 0 mm 3 mps 653 mmHg 20%
    15:00 +11°C° 0 mm 3 mps 652 mmHg 20%
    16:00 +11°C° 0 mm 3 mps 652 mmHg 20%
    17:00 +10°C° 0 mm 3 mps 652 mmHg 22%
    18:00 +9°C° 0 mm 3 mps 652 mmHg 24%
    19:00 +7°C° 0 mm 3 mps 652 mmHg 26%
    20:00 +7°C° 0 mm 3 mps 652 mmHg 26%
    21:00 +7°C° 0 mm 3 mps 652 mmHg 26%
    22:00 +7°C° 0 mm 3 mps 652 mmHg 26%
    23:00 +5°C° 0 mm 3 mps 652 mmHg 26%

    Tomorrow, 20 January, Saturday

    Time Temperature Precipitation Wind Pressure Humidity
    00:00 +5°C° 0 mm 3 mps 651 mmHg 25%
    01:00 +5°C° 0 mm 3 mps 651 mmHg 24%
    02:00 +5°C° 0 mm 3 mps 651 mmHg 24%
    03:00 +5°C° 0 mm 3 mps 651 mmHg 23%
    04:00 +5°C° 0 mm 3 mps 651 mmHg 23%
    05:00 +4°C° 0 mm 3 mps 650 mmHg 24%
    06:00 +4°C° 0 mm 3 mps 650 mmHg 24%
    07:00 +4°C° 0 mm 3 mps 650 mmHg 25%
    08:00 +5°C° 0 mm 3 mps 651 mmHg 23%
    09:00 +7°C° 0 mm 4 mps 651 mmHg 21%
    10:00 +10°C° 0 mm 4 mps 652 mmHg 20%
    11:00 +11°C° 0 mm 4 mps 651 mmHg 20%
    12:00 +12°C° 0 mm 4 mps 651 mmHg 21%
    13:00 +13°C° 0 mm 4 mps 651 mmHg 21%
    14:00 +13°C° 0 mm 4 mps 650 mmHg 22%
    15:00 +13°C° 0 mm 3 mps 650 mmHg 22%
    16:00 +13°C° 0 mm 3 mps 650 mmHg 23%
    17:00 +11°C° 0 mm 3 mps 649 mmHg 26%
    18:00 +10°C° 0 mm 3 mps 649 mmHg 29%
    19:00 +9°C° 0 mm 2 mps 649 mmHg 33%
    20:00 +8°C° 0 mm 2 mps 649 mmHg 34%
    21:00 +8°C° 0 mm 3 mps 649 mmHg 35%
    22:00 +8°C° 0 mm 3 mps 648 mmHg 37%
    23:00 +7°C° 0 mm 2 mps 648 mmHg 37%

    Day after tomorrow, 21 January, Sunday

    Time Temperature Precipitation Wind Pressure Humidity
    00:00 +7°C° 0 mm 2 mps 648 mmHg 38%
    01:00 +7°C° 0 mm 2 mps 648 mmHg 38%
    02:00 +7°C° 0 mm 2 mps 648 mmHg 38%
    03:00 +7°C° 0 mm 2 mps 648 mmHg 38%
    04:00 +7°C° 0 mm 2 mps 648 mmHg 38%
    05:00 +6°C° 0.1 mm 2 mps 649 mmHg 41%
    06:00 +6°C° 0.1 mm 2 mps 649 mmHg 43%
    07:00 +6°C° 0.1 mm 2 mps 650 mmHg 46%
    08:00 +6°C° 0.3 mm 2 mps 651 mmHg 48%
    09:00 +6°C° 0.3 mm 2 mps 651 mmHg 51%
    10:00 +6°C° 0.3 mm 2 mps 652 mmHg 53%
    11:00 +7°C° 0.6 mm 1 mps 651 mmHg 57%
    12:00 +7°C° 0.6 mm 1 mps 651 mmHg 61%
    13:00 +7°C° 0.6 mm 1 mps 651 mmHg 65%
    14:00 +7°C° 0.5 mm 1 mps 651 mmHg 66%
    15:00 +7°C° 0.5 mm 1 mps 651 mmHg 66%
    16:00 +6°C° 0.5 mm 2 mps 651 mmHg 67%
    17:00 +6°C° 0.1 mm 2 mps 651 mmHg 68%
    18:00 +5°C° 0.1 mm 2 mps 652 mmHg 70%
    19:00 +5°C° 0.1 mm 2 mps 652 mmHg 71%
    20:00 +5°C° 0 mm 2 mps 652 mmHg 71%
    21:00 +5°C° 0 mm 1 mps 652 mmHg 71%
    22:00 +5°C° 0 mm 1 mps 652 mmHg 71%
    23:00 +5°C° 0 mm 1 mps 652 mmHg 70%

    22 January, Monday

    Time Temperature Precipitation Wind Pressure Humidity
    00:00 +3°C° 0 mm 2 mps 652 mmHg 70%
    01:00 +3°C° 0 mm 2 mps 652 mmHg 70%
    02:00 +3°C° 0 mm 2 mps 652 mmHg 69%
    03:00 +3°C° 0 mm 2 mps 652 mmHg 69%
    04:00 +2°C° 0 mm 2 mps 652 mmHg 69%
    05:00 +3°C° 0 mm 1 mps 652 mmHg 69%
    06:00 +3°C° 0 mm 1 mps 652 mmHg 69%
    07:00 +3°C° 0 mm 1 mps 652 mmHg 69%
    08:00 +4°C° 0 mm 1 mps 653 mmHg 64%
    09:00 +6°C° 0 mm 1 mps 654 mmHg 59%
    10:00 +7°C° 0 mm 1 mps 654 mmHg 54%
    11:00 +8°C° 0 mm 1 mps 654 mmHg 51%
    12:00 +9°C° 0 mm 1 mps 653 mmHg 48%
    13:00 +10°C° 0 mm 1 mps 653 mmHg 45%
    14:00 +10°C° 0 mm 1 mps 652 mmHg 45%
    15:00 +10°C° 0 mm 1 mps 652 mmHg 44%
    16:00 +10°C° 0 mm 1 mps 652 mmHg 44%
    17:00 +9°C° 0 mm 1 mps 652 mmHg 46%
    18:00 +8°C° 0 mm 1 mps 651 mmHg 49%
    19:00 +6°C° 0 mm 0 mps 651 mmHg 51%
    20:00 +7°C° 0 mm 1 mps 651 mmHg 52%
    21:00 +7°C° 0 mm 1 mps 651 mmHg 52%
    22:00 +6°C° 0 mm 1 mps 651 mmHg 53%
    23:00 +6°C° 0 mm 1 mps 650 mmHg 54%

    23 January, Tuesday

    Time Temperature Precipitation Wind Pressure Humidity
    00:00 +5°C° 0 mm 2 mps 650 mmHg 54%
    01:00 +5°C° 0 mm 2 mps 650 mmHg 55%
    02:00 +5°C° 0 mm 2 mps 649 mmHg 54%
    03:00 +5°C° 0 mm 2 mps 649 mmHg 53%
    04:00 +4°C° 0 mm 2 mps 649 mmHg 52%
    05:00 +4°C° 0 mm 2 mps 649 mmHg 51%
    06:00 +4°C° 0 mm 2 mps 649 mmHg 50%
    07:00 +4°C° 0 mm 2 mps 649 mmHg 50%
    08:00 +5°C° 0 mm 2 mps 649 mmHg 48%
    09:00 +6°C° 0 mm 2 mps 649 mmHg 45%
    10:00 +8°C° 0 mm 2 mps 650 mmHg 43%
    11:00 +9°C° 0 mm 2 mps 649 mmHg 40%
    12:00 +9°C° 0 mm 2 mps 649 mmHg 37%
    13:00 +10°C° 0 mm 2 mps 649 mmHg 34%
    14:00 +10°C° 0 mm 2 mps 649 mmHg 33%
    15:00 +12°C° 0 mm 2 mps 649 mmHg 33%
    16:00 +12°C° 0 mm 2 mps 649 mmHg 32%
    17:00 +10°C° 0 mm 2 mps 648 mmHg 35%
    18:00 +8°C° 0 mm 2 mps 648 mmHg 38%
    19:00 +7°C° 0 mm 2 mps 648 mmHg 41%
    20:00 +7°C° 0 mm 2 mps 648 mmHg 41%
    21:00 +7°C° 0 mm 2 mps 648 mmHg 41%
    22:00 +6°C° 0 mm 2 mps 648 mmHg 41%
    23:00 +6°C° 0 mm 2 mps 648 mmHg 42%

    24 January, Wednesday

    Time Temperature Precipitation Wind Pressure Humidity
    00:00 +6°C° 0 mm 2 mps 648 mmHg 43%
    01:00 +6°C° 0 mm 2 mps 648 mmHg 44%
    02:00 +5°C° 0 mm 2 mps 647 mmHg 45%
    03:00 +5°C° 0 mm 2 mps 647 mmHg 45%
    04:00 +5°C° 0 mm 2 mps 647 mmHg 46%
    05:00 +5°C° 0 mm 2 mps 647 mmHg 45%
    06:00 +6°C° 0 mm 1 mps 647 mmHg 45%
    07:00 +6°C° 0 mm 1 mps 648 mmHg 44%
    08:00 +7°C° 0 mm 2 mps 648 mmHg 40%
    09:00 +8°C° 0 mm 2 mps 649 mmHg 36%
    10:00 +10°C° 0 mm 2 mps 649 mmHg 32%
    11:00 +10°C° 0 mm 2 mps 649 mmHg 30%
    12:00 +11°C° 0 mm 3 mps 649 mmHg 27%
    13:00 +12°C° 0 mm 3 mps 649 mmHg 25%
    14:00 +12°C° 0 mm 3 mps 649 mmHg 25%
    15:00 +13°C° 0 mm 3 mps 649 mmHg 24%
    16:00 +13°C° 0 mm 3 mps 649 mmHg 24%
    17:00 +12°C° 0 mm 2 mps 649 mmHg 27%
    18:00 +10°C° 0 mm 2 mps 649 mmHg 30%
    19:00 +9°C° 0 mm 1 mps 649 mmHg 34%
    20:00 +9°C° 0 mm 1 mps 649 mmHg 34%
    21:00 +8°C° 0 mm 1 mps 649 mmHg 34%
    22:00 +8°C° 0 mm 1 mps 650 mmHg 35%
    23:00 +7°C° 0 mm 1 mps 649 mmHg 36%
    Show more